Regional Weather Roundup
Issued by NWS

Home | Current Version | Previous Version | Text Only | Print | Product List | Glossary On
Versions: 1 2 3 4 5 6 7 8 9 10 11 12 13 14 15 16 17 18 19 20 21 22 23 24 25 26 27 28 29 30 31 32 33 34 35 36 37 38 39 40 41 42 43 44 45 46 47 48 49 50
000
ASUS43 KMKX 211900
RWRWI

WISCONSIN REGIONAL WEATHER ROUNDUP
NATIONAL WEATHER SERVICE MILWAUKEE/SULLIVAN WI
200 PM CDT MON AUG 21 2017

NOTE: "FAIR" INDICATES FEW OR NO CLOUDS BELOW 12,000 FEET WITH NO
SIGNIFICANT WEATHER AND/OR OBSTRUCTIONS TO VISIBILITY.

WIZ001-002-006>008-014>016-023>028-212000-
NORTHWEST WISCONSIN

CITY           SKY/WX    TMP DP  RH WIND       PRES   REMARKS
SUPERIOR ARPT    N/A     64  59  83 SE5       29.95F
ASHLAND        CLOUDY    67  60  78 E5        29.97F
HAYWARD        CLOUDY    72  61  68 CALM      29.98F
SIREN          LGT RAIN  71  62  72 E5        29.95F
CUMBERLAND     PTSUNNY   72  61  68 S3        29.98F
RICE LAKE      MOSUNNY   73  65  76 W3        29.99F
CHETEK         MOSUNNY   73  67  82 CALM      29.98F
LADYSMITH      MOSUNNY   74  65  73 CALM      30.00F
EAU CLAIRE     SUNNY     76  69  79 S6        29.95F
MENOMONIE      SUNNY     75  69  81 CALM      29.97F
NEW RICHMOND   CLOUDY    73  64  73 N6        29.97F
OSCEOLA        RAIN      71  66  85 N3        29.99F
$$

WIZ003>005-009-010-017-018-212000-
NORTH CENTRAL WISCONSIN

CITY           SKY/WX    TMP DP  RH WIND       PRES   REMARKS
MANITOWISH WTR PTSUNNY   72  60  67 S3        30.00S
ARBOR VITAE    MOSUNNY   73  62  67 CALM      30.00S
WOODRUFF       MOSUNNY   73  62  67 CALM      30.00S
RHINELANDER    MOSUNNY   75  65  70 S5        30.00F
EAGLE RIVER    MOSUNNY   73  59  61 CALM      30.00F
LAND O LAKES   MOSUNNY   73  56  54 SE3       30.02F
PHILLIPS       MOSUNNY   74  64  71 S5        29.99F
TOMAHAWK         N/A     71  64  78 CALM      30.00F
MEDFORD        CLOUDY    72  66  83 NE3       29.99F
MERRILL        CLOUDY    73  66  78 CALM      29.99F
$$

WIZ029-030-035-036-043>047-212000-
CENTRAL WISCONSIN

CITY           SKY/WX    TMP DP  RH WIND       PRES   REMARKS
WAUSAU         CLOUDY    77  68  73 S5        29.97S
MOSINEE        PTSUNNY   75  72  88 CALM      29.99R
MARSHFIELD     CLOUDY    76  68  76 S6        29.97S
STEVENS POINT  PTSUNNY   76  69  81 SE5       29.97F
WAUPACA        MOSUNNY   78  71  78 SE8       29.96F HX  80
WAUTOMA        PTSUNNY   76  70  82 S10       29.98F
WISC RAPIDS    CLOUDY    80  69  69 S7        29.99R HX  83
CAMP DOUGLAS   NOT AVBL
$$

WIZ011>013-019>022-031-037>040-048>050-212000-
NORTHEAST WISCONSIN

CITY           SKY/WX    TMP DP  RH WIND       PRES   REMARKS
ANTIGO         CLOUDY    71  66  84 E3        29.99F
SHAWANO        MOSUNNY   78  71  79 E5        29.97F
OCONTO         SUNNY     73  68  84 SE5       29.98F
STURGEON BAY   PTSUNNY   74  70  87 N3        30.00F
GREEN BAY      MOSUNNY   77  71  82 SE6       29.95F
MANITOWOC      NOT AVBL
APPLETON       PTSUNNY   73  64  73 SE9       29.96F
CLINTONVILLE   SUNNY     77  68  73 E5        29.95F
OSHKOSH        PTSUNNY   74  68  81 S7        29.96F
$$

WIZ032>034-041-042-053>061-212000-
SOUTHWEST WISCONSIN

CITY           SKY/WX    TMP DP  RH WIND       PRES   REMARKS
LA CROSSE      CLOUDY    79  65  62 SW5       29.97S HX  81
SPARTA         MOSUNNY   75  66  74 CALM      29.98S
VIROQUA        CLOUDY    72  66  81 CALM      29.99F
BOSCOBEL       CLOUDY    79  66  64 S8        29.97F HX  81
PRAIRIE DU CHI CLOUDY    74  64  70 E3        29.97F
PLATTEVILLE    CLOUDY    73  71  95 S8        30.01F
$$

WIZ056-057-062-063-064-067-068-212000-
SOUTH CENTRAL WISCONSIN

CITY           SKY/WX    TMP DP  RH WIND       PRES   REMARKS
REEDSBURG      CLOUDY    74  71  89 S6        29.98F
BARABOO/DELLS  CLOUDY    75  67  77 S6        29.98F
LONE ROCK      CLOUDY    80  72  76 S7        29.97F HX  84
MINERAL POINT  MOSUNNY   77  72  83 SE6       30.01F
MADISON        CLOUDY    75  70  84 S7        29.99F
MIDDLETON      CLOUDY    76  70  82 S7        30.01F
WATERTOWN      CLOUDY    74  73  96 SE3       29.99F
MONROE         CLOUDY    73  70  88 SE7       30.00F
JANESVILLE     PTSUNNY   77  73  88 S6        30.01F
$$

WIZ051-052-058>065-066-070>072-212000-
SOUTHEAST WISCONSIN

CITY           SKY/WX    TMP DP  RH WIND       PRES   REMARKS
MILWAUKEE      CLOUDY    78  70  76 E5        30.00F HX  80
WAUKESHA       PTSUNNY   73  70  88 SE6       30.02F
MILWAUKEE/TIMM SUNNY     79  66  65 CALM      30.01F HX  81
RACINE         CLOUDY    76  72  87 SE8       30.01F
KENOSHA        CLOUDY    79  70  74 S5        30.02F HX  82
FOND DU LAC    CLOUDY    76  67  73 S7        29.98F
SHEBOYGAN      CLOUDY    76  71  85 SE3       29.99F
WEST BEND      CLOUDY    73  70  88 CALM      30.01F
JUNEAU         CLOUDY    73  69  85 SE6       30.01F
$$

LSZ147-162-212000-
LAKE SUPERIOR

STATION/POSITION TIME  TEMP    WIND        PRES    WAVE
                       AIR SEA DIR/SP/G            HT/PER
                 (UTC) (F)     (DEG/KT/KT) (MB)    (FT/S)
W MID LAKE BUOY  1750   62 62  290/  4/  4 1015.9F   0
DEVILS ISLAND    1800   62     310/  4/  5 1015.9F
SAXON HARBOR     1830   66      50/  5/  7 1014.9F
$$

LMZ867-665-643>646-212000-
LAKE MICHIGAN

STATION/POSITION TIME  TEMP    WIND        PRES    WAVE
                       AIR SEA DIR/SP/G            HT/PER
                 (UTC) (F)     (DEG/KT/KT) (MB)    (FT/S)
S GREEN BAY BUOY 1830   73 73  270/  6/  6 1015.8F
N MID LAKE BUOY  1750   70 70  200/  2/  2 1016.7F   1/ 4
NORTHPORT PIER   1840   71     150/  4/  5 1015.6F
KEWAUNEE LAKESHO 1830   70     180/  8/  8 1015.1F
SHEBOYGAN LAKESH 1800   72     150/  9/ 10 1016.2F
PORT WASHINGTON  1840   74     170/  2/  3 1016.6F
ATWATER BUOY     1709   73 70   80/  6/  8 1017.6F
MILWAUKEE LAKESH 1840   73        CALM       N/A
S MID LAKE BUOY  1750   73 72  280/  6/  8 1018.1F   1/ 4
KENOSHA   LAKESH 1800   77      60/  3/  5 1016.9
$$

TC  - TEMPERATURE IN CELSIUS
VSB - VISIBILITY IN STATUTE MILES
WCI - WIND CHILL INDEX
HX  - HEAT INDEX





USA.gov is the U.S. government's official web portal to all federal, state and local government web resources and services.